Find Starlink 31805

NORAD ID: 59745 Int'l Des: 2024-090 Owner: SPXS Country: US Constellation: starlink operational
LEOCIRCULAR

Current View

Loading 3D Globe...

About Starlink 31805

Starlink 31805 (NORAD 59745) is a starlink constellation satellite (v2 mini) launched May 13, 2024 by SPXS of US. It operates in LEO, CIRCULAR orbit with a mass of 730.00 kg.

About Starlink 31805

Description loading...

Upcoming Passes

Passes for default location (London). Set your location on the main map for personalized predictions.

Altitude History

Loading altitude history...

Two-Line Element Set

1 59745U 24090R 26168.20355719 .00000799 00000-0 38569-4 0 9990
2 59745 43.0082 341.1382 0001964 270.6446 89.4181 15.27580211118665
Epoch: Jun 17, 2026 • Age: 28 hours

Current Status

Altitude 482.6 km
Velocity 7.63 km/s
Sub-Earth Point -0.07°S, 69.19°W
Launch Date May 13, 2024
Age 2 years
Type internet

Technical Details

Classification Payload
Mass 730.00 kg
Dry Mass 700.00 kg
Total Mass 730.00 kg
Length 0.30 m
Diameter 4.10 m
Span 29.00 m
Shape Box + pan
Manufacturer SPXS
Bus Type Starlink V2M
Phase Status In Orbit
Owner/State SPXS/US

Most Searched